Location: Gisborne
(38.6530°S, 178.0040°E)
Time: 09:40:50
(UTC+13:00)

CZ-4 R/B - Pass Details

Date: 24 January 2019
Orbit: 533 x 597 km, 97.8° (Epoch: 19 February)

Event Time Altitude Azimuth Distance (km) Brightness Sun altitude
Rises 20:49:31 0° 181° (S) 2,864 5.4 -4.3°
Reaches altitude 10° 20:52:00 10° 194° (SSW) 1,945 4.8 -4.7°
Maximum altitude 20:55:27 25° 249° (WSW) 1,204 4.2 -5.3°
Drops below altitude 10° 20:58:51 10° 304° (NW) 1,894 4.4 -5.9°
Sets 21:01:14 0° 317° (NW) 2,771 5.1 -6.3°
